Location: Whitehorse
(60.7170°N, 135.0500°W)
Time: 15:23:33
(UTC-07:00)

SL-16 R/B - Visible Passes

Search period start: 25 September 2017 00:00
Search period end: 05 October 2017 00:00
Orbit: 842 x 847 km, 71.0° (Epoch: 24 September)

Date Brightness Start Highest point End Pass type
(mag) Time Alt. Az. Time Alt. Az. Time Alt. Az.
25 Sep 3.2 00:44:06 10° NW 00:49:29 41° NNE 00:51:08 34° ENE visible
25 Sep 2.5 02:28:25 10° NW 02:32:58 58° NW 02:32:58 58° NW visible
25 Sep 4.0 04:13:05 10° NW 04:14:49 17° WNW 04:14:49 17° WNW visible
25 Sep 3.5 20:59:05 10° W 21:04:23 39° NNW 21:09:42 10° NE visible
25 Sep 3.8 22:44:57 10° WNW 22:49:54 29° N 22:54:51 10° ENE visible
26 Sep 3.2 00:30:01 10° NW 00:35:23 41° NNE 00:36:55 34° ENE visible
26 Sep 2.6 02:14:21 10° NW 02:18:46 55° NW 02:18:46 55° NW visible
26 Sep 4.1 03:59:00 10° NW 04:00:36 17° WNW 04:00:36 17° WNW visible
26 Sep 3.5 20:44:58 10° W 20:50:17 39° NNW 20:55:37 10° NE visible
26 Sep 3.8 22:30:51 10° WNW 22:35:48 29° N 22:40:45 10° ENE visible
27 Sep 3.2 00:15:56 10° NW 00:21:18 40° NNE 00:22:46 34° ENE visible
27 Sep 2.7 02:00:17 10° NW 02:04:36 54° NW 02:04:36 54° NW visible
27 Sep 4.1 03:44:55 10° NW 03:46:27 17° WNW 03:46:27 17° WNW visible
27 Sep 3.5 20:30:52 10° W 20:36:12 40° NNW 20:41:33 10° NE visible
27 Sep 3.8 22:16:46 10° WNW 22:21:42 29° N 22:26:40 10° ENE visible
28 Sep 3.2 00:01:51 10° NW 00:07:13 40° NNE 00:08:39 34° ENE visible
28 Sep 2.8 01:46:12 10° NW 01:50:30 53° NW 01:50:30 53° NW visible
28 Sep 4.1 03:30:49 10° NW 03:32:20 17° WNW 03:32:20 17° WNW visible
28 Sep 3.4 20:16:46 10° W 20:22:06 40° NNW 20:27:28 10° NE visible
28 Sep 3.8 22:02:39 10° WNW 22:07:37 29° N 22:12:34 10° ENE visible
28 Sep 3.2 23:47:46 10° NW 23:53:07 40° NNE 23:54:34 34° ENE visible
29 Sep 2.8 01:32:08 10° NW 01:36:25 53° NW 01:36:25 53° NW visible
29 Sep 4.2 03:16:43 10° NW 03:18:16 17° WNW 03:18:16 17° WNW visible
29 Sep 3.8 21:48:34 10° WNW 21:53:31 29° N 21:58:28 10° ENE visible
29 Sep 3.2 23:33:42 10° NW 23:39:01 39° NNE 23:40:31 33° ENE visible
30 Sep 2.8 01:18:03 10° NW 01:22:22 53° NW 01:22:22 53° NW visible
30 Sep 4.2 03:02:38 10° NW 03:04:13 17° WNW 03:04:13 17° WNW visible
30 Sep 3.7 21:34:28 10° WNW 21:39:25 30° N 21:44:23 10° ENE visible
30 Sep 3.2 23:19:37 10° NW 23:24:57 39° NNE 23:26:29 33° ENE visible
01 Oct 2.8 01:03:59 10° NW 01:08:20 54° NW 01:08:20 54° NW visible
01 Oct 4.2 02:48:33 10° NW 02:50:12 18° WNW 02:50:12 18° WNW visible
01 Oct 3.7 21:20:22 10° WNW 21:25:19 30° N 21:30:17 10° ENE visible
01 Oct 3.2 23:05:32 10° NW 23:10:51 38° NNE 23:12:29 32° ENE visible
02 Oct 2.7 00:49:55 10° NW 00:54:20 56° NW 00:54:20 56° NW visible
02 Oct 4.2 02:34:27 10° NW 02:36:11 18° WNW 02:36:11 18° WNW visible
02 Oct 3.7 21:06:16 10° WNW 21:11:13 30° N 21:16:11 10° ENE visible
02 Oct 3.2 22:51:27 10° NW 22:56:46 38° NNE 22:58:30 31° ENE visible
03 Oct 2.7 00:35:50 10° NW 00:40:21 57° NW 00:40:21 57° NW visible
03 Oct 4.2 02:20:22 10° NW 02:22:13 19° WNW 02:22:13 19° WNW visible
03 Oct 3.7 20:52:10 10° WNW 20:57:08 30° N 21:02:05 10° ENE visible
03 Oct 3.2 22:37:23 10° NW 22:42:41 38° NNE 22:44:33 30° ENE visible
04 Oct 2.6 00:21:46 10° NW 00:26:24 60° NNW 00:26:24 60° NNW visible
04 Oct 4.2 02:06:17 10° NW 02:08:15 19° WNW 02:08:15 19° WNW visible
04 Oct 3.6 20:38:04 10° WNW 20:43:02 30° N 20:48:00 10° ENE visible
04 Oct 3.2 22:23:18 10° NW 22:28:35 37° NNE 22:30:36 29° ENE visible
